Terminal Aerodrome Forecast
Issued by NWS Billings, MT

Home | Current Version | Previous Version | Text Only | Print | Product List | Glossary Off
Versions: 1 2 3 4 5 6 7 8 9 10 11 12 13 14 15 16 17 18 19 20 21 22 23 24 25 26 27 28 29 30 31 32 33 34

000
FTUS45 KBYZ 231739
TAFMLS
TAF
KMLS 231739Z 2318/2418 14010KT P6SM SKC
     FM240400 14014KT P6SM SKC WS015/14040KT
     FM241100 19008KT P6SM SKC
     FM241500 31015G21KT P6SM SKC=

USA.gov is the U.S. government's official web portal to all federal, state and local government web resources and services.